DW7779 Weather Reports


Display with metric or nautical units.
time (UTC)temp
F
wind
direction
speed
MPH
gust
MPH
rain 1hr
in
rain 24hr
in
rain mn
in
humidity
%
barometer
mb
20260904211530 55 0.0 2.0 0.00 0.34 0.11 97 1002.6
20260904210029 55 0.0 4.0 0.00 0.34 0.11 97 1003.0
20260904204527 55 0.0 7.0 0.00 0.34 0.11 97 1003.3
20260904203129 54 0.0 2.0 0.00 0.34 0.11 97 1002.9
20260904201538 55 0.0 3.0 0.00 0.34 0.11 97 1002.9
20260904200040 55 1.0 4.0 0.00 0.34 0.11 97 1003.2
20260904194524 55 0.0 4.0 0.01 0.34 0.11 97 1003.1
20260904193029 55 3.0 9.0 0.01 0.34 0.11 97 1003.1
20260904191521 55 5.0 10.0 0.02 0.34 0.11 96 1003.1
20260904190018 55 3.0 12.0 0.02 0.34 0.11 96 1003.5
20260904184517 55 4.0 12.0 0.02 0.33 0.10 96 1003.9
20260904183016 55 5.0 15.0 0.02 0.33 0.10 96 1004.2
20260904181516 55 6.0 15.0 0.02 0.32 0.09 96 1004.5
20260904180012 55 3.0 7.0 0.01 0.31 0.09 96 1004.5
20260904174511 55 5.0 14.0 0.01 0.31 0.08 97 1005.1
20260904173010 56 2.0 10.0 0.02 0.31 0.08 97 1004.6
20260904171527 56 2.0 10.0 0.02 0.31 0.08 97 1004.1
20260904170008 56 4.0 11.0 0.03 0.31 0.08 97 1004.0
20260904164505 56 5.0 14.0 0.02 0.30 0.07 97 1004.8
20260904163002 56 2.0 9.0 0.02 0.28 0.06 97 1005.7
20260904161612 55 0.0 3.0 0.01 0.28 0.06 97 1006.1
20260904154600 54 0.0 4.0 0.00 0.28 0.05 97 1006.4
20260904153110 54 1.0 3.0 0.00 0.28 0.05 97 1006.6
20260904151551 54 1.0 2.0 0.01 0.28 0.05 97 1007.6
20260904150051 54 0.0 3.0 0.04 0.28 0.05 97 1007.8
20260904144547 54 0.0 4.0 0.19 0.28 0.05 97 1008.2
20260904143101 54 0.0 2.0 0.19 0.28 0.05 97 1008.2
20260904141643 54 0.0 1.0 0.20 0.27 0.04 97 1008.6
20260904140042 54 0.0 1.0 0.20 0.24 0.01 97 1009.5
20260904134536 54 0.0 1.0 0.06 0.09 0.09 97 1009.1
20260904133035 54 0.0 4.0 0.06 0.09 0.09 97 1009.3
20260904131534 54 0.0 2.0 0.02 0.05 0.05 97 1009.7
20260904130032 53 0.0 2.0 0.01 0.03 0.03 97 1009.6
20260904124531 53 0.0 1.0 0.01 0.03 0.03 97 1009.9
20260904123028 52 0.0 0.0 0.02 0.03 0.03 96 1010.0
20260904121526 52 0.0 0.0 0.02 0.03 0.03 96 1010.6
20260904120040 52 0.0 0.0 0.01 0.02 0.02 96 1010.9
20260904114524 53 0.0 0.0 0.01 0.02 0.02 96 1010.7
20260904113022 53 0.0 2.0 0.00 0.02 0.02 96 1010.9
20260904111522 52 0.0 3.0 0.00 0.02 0.02 96 1011.2
20260904110019 52 0.0 0.0 0.01 0.02 0.02 96 1011.5
20260904104515 51 0.0 1.0 0.02 0.02 0.02 95 1011.7
20260904103013 52 0.0 1.0 0.02 0.02 0.02 94 1011.8
20260904101518 52 0.0 0.0 0.02 0.02 0.02 92 1012.0
20260904100113 55 0.0 0.0 0.01 0.01 0.01 85 1012.2
20260904094510 55 0.0 0.0 0.00 0.00 0.00 82 1012.2
20260904093011 56 0.0 1.0 0.00 0.00 0.00 80 1012.3
20260904091510 56 0.0 1.0 0.00 0.00 0.00 78 1012.2
20260904090018 55 0.0 2.0 0.00 0.00 0.00 78 1012.4
20260904084508 54 0.0 1.0 0.00 0.00 0.00 80 1012.2
20260904083007 55 0.0 1.0 0.00 0.00 0.00 79 1012.3
20260904081506 55 0.0 0.0 0.00 0.00 0.00 77 1012.4
20260904080004 57 0.0 3.0 0.00 0.00 0.00 75 1012.5
20260904074503 58 1.0 6.0 0.00 0.00 0.00 73 1012.6
20260904073003 59 3.0 8.0 0.00 0.00 0.00 71 1012.7
20260904071501 59 1.0 4.0 0.00 0.00 0.00 71 1012.7
20260904064557 60 2.0 7.0 0.00 0.00 0.00 70 1013.0
20260904063113 60 4.0 10.0 0.00 0.00 0.00 69 1013.2
20260904061555 61 2.0 7.0 0.00 0.00 0.00 70 1013.4
20260904060055 61 3.0 7.0 0.00 0.00 0.00 68 1013.5
20260904054554 61 2.0 6.0 0.00 0.00 0.00 67 1013.7
20260904053059 61 4.0 8.0 0.00 0.00 0.00 65 1014.0
20260904051548 61 2.0 7.0 0.00 0.00 0.00 67 1014.1
20260904050047 61 5.0 9.0 0.00 0.00 0.00 65 1014.3
20260904044548 61 3.0 9.0 0.00 0.00 0.00 66 1014.3
20260904043054 61 3.0 8.0 0.00 0.00 0.00 64 1014.3
20260904041543 61 4.0 9.0 0.00 0.00 0.00 63 1014.5
20260904040043 61 4.0 7.0 0.00 0.00 0.00 62 1014.5
20260904034641 61 3.0 9.0 0.00 0.00 0.00 60 1014.5
20260904033039 61 5.0 10.0 0.00 0.00 0.00 59 1015.0
20260904031535 61 4.0 9.0 0.00 0.00 0.00 60 1015.2
20260904030050 59 4.0 8.0 0.00 0.00 0.00 61 1015.3
20260904024532 61 4.0 10.0 0.00 0.00 0.00 58 1015.6
20260904023028 59 4.0 8.0 0.00 0.00 0.00 60 1016.0
20260904021529 58 3.0 9.0 0.00 0.00 0.00 61 1016.4
20260904020022 58 4.0 10.0 0.00 0.00 0.00 59 1016.7
20260904014519 58 5.0 10.0 0.00 0.00 0.00 60 1017.0
20260904013018 57 5.0 8.0 0.00 0.00 0.00 60 1017.2
20260904011516 57 5.0 10.0 0.00 0.00 0.00 59 1017.3
20260904010018 56 6.0 11.0 0.00 0.00 0.00 62 1017.5
20260904004515 56 4.0 12.0 0.00 0.02 0.00 60 1017.6
20260904003013 56 5.0 11.0 0.00 0.02 0.00 63 1018.0
20260904001512 56 6.0 11.0 0.00 0.02 0.00 60 1018.3
20260904000010 56 3.0 10.0 0.00 0.02 0.00 64 1018.3
20260903234509 55 3.0 7.0 0.00 0.04 0.00 65 1018.5
20260903233110 54 4.0 8.0 0.00 0.04 0.00 70 1018.5
20260903231603 53 3.0 10.0 0.00 0.04 0.00 73 1018.3
20260903230056 51 3.0 8.0 0.00 0.04 0.00 77 1018.7
20260903224555 49 1.0 4.0 0.00 0.04 0.00 82 1018.8
20260903223051 46 1.0 3.0 0.00 0.04 0.00 85 1018.8
20260903221544 44 0.0 3.0 0.00 0.04 0.00 88 1018.6
20260903220046 42 0.0 0.0 0.00 0.04 0.00 90 1018.6
20260903214540 40 0.0 0.0 0.00 0.04 0.00 93 1018.3
20260903213143 38 0.0 0.0 0.00 0.04 0.00 93 1018.1